FW1214 Weather Reports


time (UTC)temp
C
wind
direction
speed
KPH
gust
KPH
rain 1hr
cm
rain 24hr
cm
rain mn
cm
humidity
%
barometer
mb
20260906200042 30 68 16.1 27.4 0.00 0.00 0.00 63 1011.2
20260906194541 30 63 16.1 29.0 0.00 0.00 0.00 64 1011.2
20260906193036 29 60 9.7 25.7 0.00 0.00 0.00 69 1011.3
20260906191533 28 49 12.9 29.0 0.00 0.00 0.00 70 1011.8
20260906190029 28 90 14.5 29.0 0.00 0.00 0.00 72 1012.1
20260906184529 27 76 19.3 32.2 0.00 0.00 0.00 73 1012.6
20260906183026 27 64 14.5 32.2 0.00 0.00 0.00 76 1013.1
20260906181521 26 60 14.5 30.6 0.00 0.00 0.00 76 1013.2
20260906180018 26 47 14.5 33.8 0.00 0.00 0.00 79 1013.5
20260906174516 25 74 3.2 20.9 0.00 0.00 0.00 82 1014.0
20260906173012 25 71 6.4 17.7 0.00 0.00 0.00 84 1014.1
20260906171511 24 88 0.0 9.7 0.00 0.00 0.00 87 1014.6
20260906170007 23 84 0.0 0.0 0.00 0.00 0.00 91 1014.9
20260906164504 -17 0.0 0.0 0.00 0.00 0.00 1015.1
20260906163122 -17 0.0 0.0 0.00 0.00 0.00 1015.3
20260906161555 -17 0.0 0.0 0.00 0.00 0.00 1015.3
20260906160051 -17 0.0 0.0 0.00 0.00 0.00 1015.2
20260906154547 -17 0.0 0.0 0.00 0.00 0.00 1015.2
20260906153047 -17 0.0 0.0 0.00 0.00 0.00 1015.0
20260906151538 -17 0.0 0.0 0.00 0.00 0.00 1015.1
20260906150033 -17 0.0 0.0 0.00 0.00 0.00 1015.0
20260906144529 -17 0.0 0.0 0.00 0.00 0.00 1014.9
20260906143024 -17 0.0 0.0 0.00 0.00 0.00 1015.1
20260906141520 -17 0.0 0.0 0.00 0.00 0.00 1015.0
20260906140016 -17 0.0 0.0 0.00 0.00 0.00 1014.8
20260906134514 -17 0.0 0.0 0.00 0.00 0.00 1014.9
20260906133008 -17 0.0 0.0 0.00 0.00 0.00 1014.7
20260906131504 -17 0.0 0.0 0.00 0.00 0.00 1014.6
20260906130110 -17 0.0 0.0 0.00 0.00 0.00 1014.2
20260906124554 -17 0.0 0.0 0.00 0.00 0.00 1014.0
20260906123053 -17 0.0 0.0 0.00 0.00 0.00 1013.2
20260906121549 -17 0.0 0.0 0.00 0.00 0.00 1012.8
20260906120043 -17 0.0 0.0 0.00 0.00 0.00 1012.5
20260906114536 -17 0.0 0.0 0.00 0.00 0.00 1012.2
20260906113032 -17 0.0 0.0 0.00 0.00 0.00 1011.9
20260906111528 -17 0.0 0.0 0.00 0.00 0.00 1011.4
20260906110023 -17 45 0.0 1.6 0.00 0.00 0.00 1011.1
20260906104524 22 62 0.0 1.6 0.00 0.00 0.00 78 1010.9
20260906103020 22 85 0.0 1.6 0.00 0.00 0.00 78 1010.9
20260906101520 22 178 0.0 1.6 0.00 0.00 0.00 79 1010.9
20260906100019 22 112 0.0 1.6 0.00 0.00 0.00 79 1011.0
20260906094518 22 87 0.0 0.0 0.00 0.00 0.00 78 1011.0
20260906093028 22 112 0.0 0.0 0.00 0.00 0.00 78 1010.8
20260906091516 23 82 0.0 1.6 0.00 0.00 0.00 78 1010.9
20260906090016 23 76 0.0 0.0 0.00 0.00 0.00 76 1010.9
20260906084516 23 86 0.0 0.0 0.00 0.00 0.00 76 1010.7
20260906083014 23 77 0.0 0.0 0.00 0.00 0.00 77 1010.8
20260906081516 23 84 0.0 0.0 0.00 0.00 0.00 78 1010.6
20260906080012 23 81 0.0 0.0 0.00 0.00 0.00 79 1010.9
20260906074512 23 81 0.0 0.0 0.00 0.00 0.00 81 1010.9
20260906073009 23 76 0.0 3.2 0.00 0.00 0.00 80 1010.9
20260906071508 23 87 0.0 4.8 0.00 0.00 0.00 83 1010.7
20260906070008 23 79 0.0 0.0 0.00 0.00 0.00 83 1010.8
20260906064509 23 81 0.0 0.0 0.00 0.00 0.00 83 1010.7
20260906063003 23 96 0.0 0.0 0.00 0.00 0.00 83 1010.6
20260906061503 23 76 0.0 0.0 0.00 0.00 0.00 82 1010.5
20260906060105 23 74 0.0 0.0 0.00 0.00 0.00 82 1010.3
20260906054559 23 64 0.0 0.0 0.00 0.00 0.00 80 1010.2
20260906053057 23 78 0.0 0.0 0.00 0.00 0.00 79 1010.0
20260906051558 23 83 0.0 0.0 0.00 0.00 0.00 79 1010.0
20260906050055 23 76 0.0 0.0 0.00 0.00 0.00 80 1010.1
20260906044551 23 78 0.0 0.0 0.00 0.00 0.00 80 1010.1
20260906043048 24 66 0.0 0.0 0.00 0.00 0.00 79 1010.3
20260906041549 24 74 0.0 0.0 0.00 0.00 0.00 76 1010.4
20260906040049 25 83 0.0 0.0 0.00 0.00 0.00 77 1010.4
20260906034545 25 75 0.0 1.6 0.00 0.00 0.00 77 1010.3
20260906033045 25 75 0.0 0.0 0.00 0.00 0.00 78 1010.1
20260906031544 24 95 0.0 0.0 0.00 0.00 0.00 77 1010.0
20260906030045 25 85 0.0 0.0 0.00 0.00 0.00 77 1009.9
20260906024542 25 77 0.0 0.0 0.00 0.00 0.00 78 1010.0
20260906023046 25 72 0.0 0.0 0.00 0.00 0.00 78 1009.5
20260906021540 25 102 0.0 0.0 0.00 0.00 0.00 76 1009.4
20260906020040 25 90 0.0 0.0 0.00 0.00 0.00 75 1009.3
20260906014544 26 78 0.0 0.0 0.00 0.00 0.00 72 1009.3
20260906013040 26 78 0.0 0.0 0.00 0.00 0.00 70 1009.1
20260906011539 27 76 0.0 0.0 0.00 0.00 0.00 67 1008.3
20260906010037 28 72 0.0 0.0 0.00 0.00 0.00 64 1008.4
20260906004536 29 111 0.0 0.0 0.00 0.00 0.00 60 1008.8
20260906003035 31 98 0.0 0.0 0.00 0.00 0.00 58 1008.7
20260906001536 31 45 0.0 1.6 0.00 0.00 0.00 58 1008.7
20260906000034 31 128 0.0 17.7 0.00 0.00 0.00 57 1008.9
20260905234533 31 48 0.0 1.6 0.00 0.00 0.00 56 1008.8
20260905233035 31 69 0.0 11.3 0.00 0.00 0.00 55 1008.8
20260905231530 30 215 0.0 4.8 0.00 0.00 0.00 55 1008.9
20260905230029 30 93 0.0 8.0 0.00 0.00 0.00 55 1008.9
20260905224529 29 171 1.6 35.4 0.00 0.00 0.00 57 1008.8
20260905223030 28 64 29.0 45.1 0.00 0.00 0.00 59 1008.8
20260905221535 28 138 20.9 35.4 0.00 0.00 0.00 64 1008.9
20260905220027 30 96 11.3 40.2 0.00 0.00 0.00 55 1008.7
20260905214526 27 55 30.6 45.1 0.00 0.00 0.00 64 1008.7
20260905213124 25 55 22.5 45.1 0.00 0.00 0.00 73 1008.7
20260905211526 26 47 27.4 40.2 0.00 0.00 0.00 71 1009.0
20260905210029 27 65 14.5 24.1 0.00 0.00 0.00 68 1008.7
20260905204523 28 107 0.0 12.9 0.00 0.00 0.00 62 1008.7
20260905203022 28 66 3.2 33.8 0.00 0.00 0.00 64 1008.6
20260905201526 32 22 20.9 54.7 0.00 0.00 0.00 48 1008.5